Lapse_Rate
6.4 6.3 6.2 6.1 5.9 5.8 5.4 5.3 4.8 4.8 4.2 4.2 4.3 4.5 4.7 4.7 4.8 4.8 4.9 5.0 5.2 5.3 5.4 5.4 5.2 5.2 5.3 5.3 5.2 5.2 5.3 5.3 5.1 4.9 4.9 4.9 5.0 5.2 5.4 5.3 5.3 5.5 5.7
6.1 6.1 6.2 6.3 6.2 6.0 5.5 5.1 5.0 4.5 4.3 4.2 4.3 4.3 4.5 4.6 4.6 4.8 5.2 5.2 5.2 5.2 5.1 5.2 5.3 5.2 5.2 5.2 5.2 5.1 5.2 5.2 5.1 5.2 4.9 5.1 5.3 5.4 5.5 5.5 5.7 5.8 6.0
6.2 6.1 6.2 6.1 6.1 6.1 5.8 5.2 4.8 4.7 4.6 4.5 4.3 4.6 4.6 4.8 4.9 5.2 5.1 5.0 4.9 4.9 5.1 5.3 5.4 5.3 5.3 5.3 5.3 5.4 5.4 5.4 5.2 5.2 5.0 5.2 5.5 5.7 5.6 5.7 5.9 6.1 6.3
6.2 6.2 6.2 6.2 6.3 6.3 5.9 5.5 4.9 4.7 4.4 4.3 4.4 4.7 4.9 5.3 5.3 5.1 5.2 5.1 5.2 5.1 5.3 5.4 5.4 5.3 5.3 5.3 5.3 5.4 5.4 5.3 5.5 5.3 5.5 5.2 5.3 5.6 6.0 6.2 6.2 6.2 6.4
6.2 6.2 6.3 6.3 6.2 6.1 6.0 5.8 5.3 5.2 5.1 5.0 4.9 5.1 5.2 5.4 5.4 5.5 5.4 5.5 5.5 5.5 5.5 5.5 5.4 5.4 5.4 5.5 5.4 5.5 5.5 5.5 5.5 5.4 5.6 5.5 5.6 5.7 6.4 6.5 7.0 7.0 6.9
5.9 5.8 5.8 5.9 6.1 6.2 6.2 6.1 6.0 5.8 5.6 5.5 5.5 5.6 5.7 5.7 5.7 5.7 5.6 5.6 5.6 5.8 5.8 5.8 5.7 5.8 5.8 5.7 5.7 5.7 5.7 5.7 5.7 5.7 5.6 5.8 6.1 6.5 6.6 6.7 6.8 6.9 7.7
5.3 5.5 5.8 6.0 6.0 6.0 6.0 6.1 6.2 6.2 6.1 6.2 6.3 6.2 6.0 5.9 5.9 5.9 5.9 6.0 6.2 6.2 6.2 6.1 6.1 6.1 6.0 5.9 5.9 5.9 5.9 6.0 6.0 6.0 6.0 6.1 6.2 6.3 6.7 6.4 6.4 6.6 7.5
5.6 5.7 6.0 6.1 6.0 6.1 6.1 6.0 6.1 6.1 6.1 6.0 6.1 6.1 6.0 6.0 6.0 6.1 6.2 6.3 6.3 6.4 6.2 6.1 6.0 5.9 5.8 5.8 5.8 5.8 5.9 6.0 6.1 6.2 6.3 6.5 6.5 7.1 6.9 6.9 6.2 6.1 6.8
5.9 6.1 6.1 6.0 6.2 6.1 6.2 6.3 6.2 6.2 6.1 6.0 6.0 5.9 5.9 6.0 6.1 6.1 6.1 6.3 6.3 6.5 6.5 6.4 6.4 6.4 6.3 6.2 6.2 6.3 6.5 6.4 6.5 6.6 6.4 6.4 7.0 7.6 7.2 6.6 6.7 6.5 6.4
6.1 6.2 6.1 5.9 5.8 6.0 6.0 5.9 5.7 5.9 6.1 6.1 6.2 6.3 6.2 6.2 6.3 6.5 6.5 6.4 6.4 6.4 6.5 6.7 6.8 6.8 6.7 6.5 6.2 6.3 6.5 6.5 6.6 6.6 6.5 6.5 7.3 7.7 7.3 7.1 6.7 6.7 6.8
6.0 6.0 6.0 6.0 5.9 5.8 5.6 5.5 5.6 5.6 5.7 5.9 6.1 6.3 6.3 6.3 6.3 6.5 6.6 6.6 6.7 6.6 6.6 6.6 6.7 6.9 7.0 7.0 6.6 6.4 6.5 6.6 6.7 6.6 6.8 7.2 7.8 7.8 7.5 7.0 6.9 6.9 6.8
5.6 5.8 5.9 5.8 5.6 5.5 5.6 5.8 5.8 5.9 5.9 5.9 6.0 6.2 6.3 6.3 6.2 6.3 6.3 6.4 6.7 6.8 6.8 6.9 6.9 7.2 7.3 7.2 7.1 7.1 7.0 6.8 6.5 6.8 6.9 7.3 8.1 7.8 7.2 7.0 6.9 7.0 7.0
5.2 5.0 4.9 4.9 5.2 5.3 5.5 5.5 5.4 5.5 5.6 5.6 5.7 5.6 5.6 5.9 6.1 6.3 6.2 6.1 6.0 6.2 6.6 6.8 7.0 7.0 7.1 7.3 7.4 7.2 7.3 7.2 6.9 6.9 7.0 7.1 7.5 7.8 7.9 7.4 7.0 7.2 7.2
5.1 5.0 4.8 4.9 5.1 5.1 5.1 4.8 4.6 4.8 4.9 4.8 4.7 4.8 5.1 5.2 5.4 5.6 5.7 5.8 6.0 6.6 6.8 7.1 7.3 7.6 7.6 7.7 7.6 7.6 7.5 7.3 7.0 6.6 6.9 7.0 7.1 7.5 7.6 7.5 7.0 6.9 7.0
4.6 4.7 4.8 4.6 4.4 4.4 4.2 4.0 4.0 4.1 4.3 4.6 4.8 4.7 4.6 4.4 4.5 4.8 5.2 5.5 5.7 6.0 6.3 6.6 7.0 7.3 7.7 7.9 7.9 7.8 7.7 7.1 7.0 6.5 6.3 6.7 7.0 7.2 7.3 7.3 7.0 6.7 6.9
4.4 4.4 4.3 4.2 3.9 3.9 4.0 4.1 4.2 4.2 4.3 4.4 4.6 4.6 4.7 4.9 4.9 4.8 4.9 5.0 5.2 5.5 5.7 6.1 6.4 6.8 7.4 7.9 7.9 7.7 7.7 7.0 6.7 6.7 6.6 6.6 6.5 6.4 7.1 7.5 7.2 6.0 6.0
4.4 4.1 3.9 4.0 4.2 4.1 4.3 4.5 4.7 4.8 4.7 4.6 4.7 4.6 4.7 4.9 5.2 5.3 5.3 5.5 5.4 5.4 5.4 5.8 6.0 6.2 6.7 7.4 7.8 7.8 7.5 7.2 7.0 6.7 6.8 6.6 6.5 6.3 6.3 7.2 6.9 5.9 5.6
4.4 4.5 4.5 4.6 4.6 4.5 4.4 4.5 4.5 4.6 4.6 4.6 4.6 4.6 4.7 4.9 5.1 5.1 5.3 5.5 5.7 5.8 5.8 6.0 6.1 6.3 6.6 7.1 7.6 7.9 7.6 7.3 7.1 7.1 6.8 6.9 6.5 6.2 6.0 6.6 6.7 6.3 6.2
5.1 5.0 5.0 4.8 4.8 4.8 4.7 4.4 4.3 4.3 4.4 4.5 4.7 4.8 5.0 5.2 5.3 5.3 5.3 5.5 5.6 5.9 6.2 6.0 6.4 6.9 6.8 7.0 7.0 7.4 7.6 7.4 7.2 7.0 6.9 6.6 6.6 5.8 6.1 6.3 6.6 6.9 6.2
5.5 5.4 5.2 5.1 4.9 4.7 4.6 4.5 4.4 4.4 4.5 4.7 4.8 5.0 5.2 5.3 5.4 5.5 5.6 5.7 5.8 5.9 6.1 6.4 6.5 6.9 6.9 6.9 6.6 6.6 7.0 7.2 7.1 7.5 6.8 6.4 6.4 6.3 6.1 6.2 6.5 6.7 6.7
5.7 5.5 5.3 5.2 4.9 4.5 4.4 4.4 4.6 4.6 4.7 4.9 5.1 5.2 5.2 5.3 5.3 5.5 5.7 5.9 5.9 6.0 6.1 6.4 6.7 6.8 6.9 6.6 6.5 6.5 6.1 6.8 6.9 7.1 7.3 6.6 6.5 6.5 6.1 5.8 5.9 6.2 6.2
5.3 5.0 4.7 4.5 4.5 4.5 4.5 4.7 4.8 4.9 5.2 5.3 5.3 5.2 5.2 5.3 5.4 5.4 5.7 5.8 5.9 6.1 6.4 6.7 6.8 7.0 6.9 6.8 6.6 6.2 6.3 6.3 6.8 7.0 7.0 7.0 6.8 6.7 6.7 6.0 5.6 5.8 5.7
4.7 4.9 4.9 5.0 5.1 5.1 5.3 5.3 5.3 5.3 5.2 5.2 5.1 5.1 5.1 5.2 5.5 5.7 6.1 6.2 6.3 6.4 6.6 6.7 6.9 7.0 7.0 7.0 6.6 6.5 6.1 6.4 6.1 6.5 6.7 6.9 6.8 6.2 6.4 6.1 5.7 6.0 5.9
4.7 4.9 5.0 5.0 5.0 5.0 5.1 5.0 5.0 4.9 4.9 4.8 4.8 4.8 4.9 5.2 5.7 6.1 6.4 6.5 6.5 6.8 7.0 6.8 6.7 6.7 6.7 7.1 7.0 6.4 6.0 6.1 6.1 6.0 6.5 6.7 6.5 6.1 6.8 6.4 5.7 5.7 6.0
5.1 5.1 5.2 5.2 5.3 5.3 5.1 4.9 4.7 4.6 4.5 4.5 4.6 5.0 5.3 5.6 6.1 6.4 6.6 6.7 6.7 6.5 6.8 6.5 6.4 6.2 6.4 6.7 6.9 6.3 5.9 5.9 6.2 6.0 6.3 6.7 6.5 6.8 6.9 6.9 6.3 5.8 5.9
5.4 5.5 5.5 5.5 5.4 5.1 4.9 4.6 4.5 4.2 4.2 4.6 4.8 5.0 5.1 5.2 5.6 6.1 6.6 6.7 6.6 6.6 6.4 6.1 5.8 5.8 5.7 6.2 6.8 6.4 5.8 5.6 5.9 5.8 5.7 6.1 6.6 6.7 6.6 6.0 5.8 5.8 5.8
Wind_Speed
13 13 15 16 17 17 18 19 17 18 12 11 11 11 12 11 11 12 18 19 20 21 17 13 13 13 13 13 13 12 14 11 10 8 10 11 13 14 12 11 12 13 14
12 9 9 11 15 17 17 17 17 17 14 11 10 9 7 10 10 11 14 20 21 21 15 16 14 15 12 14 14 14 11 11 10 8 6 5 9 9 10 9 9 12 8
14 14 13 10 8 11 13 14 15 15 15 16 10 9 9 8 9 12 12 14 18 19 17 17 15 15 13 12 15 15 16 12 11 14 9 5 7 2 6 8 7 8 7
17 16 16 14 10 8 6 8 10 10 11 13 12 17 13 12 12 11 10 11 16 17 17 18 17 16 13 15 14 13 14 14 11 6 10 12 9 6 7 6 7 8 9
18 19 17 15 13 9 5 5 7 10 11 13 15 12 15 12 10 10 12 13 13 16 17 17 17 16 13 16 17 15 16 12 11 11 7 10 9 9 9 10 9 9 10
17 17 16 14 15 12 10 6 5 6 7 11 14 17 18 15 11 11 10 10 10 10 16 17 16 16 16 16 15 16 18 14 13 11 11 10 7 9 8 9 13 12 11
17 17 18 17 16 16 14 10 10 8 6 6 10 13 15 15 16 15 11 12 10 10 13 16 16 14 16 17 16 16 15 14 12 14 11 11 12 11 10 11 11 11 10
15 15 15 15 15 15 16 15 13 12 10 7 7 8 10 8 9 11 11 10 10 10 11 13 15 17 16 16 16 12 12 14 13 16 14 12 12 12 12 11 10 9 9
13 14 14 14 14 14 15 15 15 14 13 11 8 8 8 10 10 12 11 9 12 11 13 14 15 17 17 18 17 13 16 16 15 15 16 13 12 12 12 11 11 11 11
11 12 11 12 11 12 12 15 15 15 14 13 11 8 8 8 10 10 12 13 13 14 14 14 15 16 17 18 18 15 16 15 12 12 15 14 12 12 11 11 11 11 12
10 9 8 8 10 11 12 13 14 15 14 14 13 12 11 10 8 9 10 11 13 13 14 15 16 17 18 18 17 19 18 18 17 15 15 17 16 11 11 10 9 10 9
6 7 7 7 8 9 10 12 13 13 13 11 12 12 12 12 11 11 11 11 12 13 14 15 16 17 18 18 19 20 18 20 18 18 17 18 12 17 15 10 13 12 11
5 6 6 6 8 9 11 12 12 12 12 11 10 11 13 13 14 13 13 13 12 13 14 14 16 18 18 18 20 20 21 20 20 18 18 19 18 16 13 13 12 11 9
2 4 5 5 7 9 11 11 11 11 11 12 12 11 11 11 11 12 13 14 14 14 15 15 16 16 18 17 18 19 19 19 19 18 19 18 18 20 17 14 15 12 10
6 9 11 12 12 13 14 14 14 14 14 14 12 12 12 13 13 14 15 15 15 13 14 16 16 17 15 13 16 17 18 19 20 18 17 18 20 22 19 11 14 13 12
7 9 11 13 14 12 12 12 13 13 13 13 14 14 13 14 15 16 17 18 17 17 16 15 16 17 11 16 15 16 17 17 18 18 17 18 17 19 22 21 15 16 13
11 11 11 11 9 10 10 11 12 12 12 13 12 13 14 15 15 16 16 17 18 18 19 18 17 18 17 16 15 17 15 19 18 17 16 14 12 16 17 20 18 15 15
12 12 10 8 8 9 12 13 13 13 12 11 12 13 14 15 16 16 16 17 16 17 17 18 19 18 16 16 15 17 18 17 19 19 15 15 15 14 17 13 13 13 10
10 8 6 7 9 10 12 13 13 14 14 14 15 15 16 16 17 17 18 17 17 17 16 16 18 18 19 19 15 14 16 15 18 17 16 15 17 19 21 13 12 10 6
5 7 9 10 10 12 13 14 14 14 13 14 15 16 16 17 17 18 18 17 17 17 15 17 17 18 18 20 16 14 12 17 12 12 14 16 19 13 23 14 13 12 11
8 9 10 10 11 12 12 13 13 13 13 14 15 15 16 16 16 17 16 16 17 16 17 17 17 17 15 17 15 17 14 14 13 10 9 8 12 15 25 20 15 13 15
11 10 10 10 10 10 10 12 13 14 15 15 16 16 16 13 13 17 15 16 16 16 16 17 15 13 16 16 18 17 18 21 13 13 10 7 12 19 24 16 15 24 19
10 10 10 11 11 11 12 14 15 15 15 16 16 15 17 15 15 16 15 13 14 12 13 12 12 13 13 14 20 20 14 19 12 10 11 11 16 20 18 17 25 28 10
9 9 11 13 13 14 15 15 16 16 17 17 17 16 16 16 15 12 12 12 12 12 12 12 12 12 12 13 12 12 13 17 13 7 5 6 10 13 12 16 16 8 9
9 10 12 13 15 15 16 16 16 17 16 17 16 16 13 16 15 13 12 12 13 13 12 12 12 13 13 13 21 21 15 13 13 2 1 5 7 8 8 8 7 8 10
10 11 13 14 16 16 17 17 17 16 16 16 13 12 12 13 12 12 13 14 17 19 20 21 16 13 21 26 29 29 27 24 16 3 4 5 8 10 10 10 9 8 12
Wind_Direction
297 279 265 252 245 240 238 232 227 223 215 213 214 223 226 229 230 231 233 230 226 222 220 225 227 223 225 227 228 230 235 235 238 257 259 260 256 259 255 253 252 256 251
336 334 320 281 256 245 233 234 232 230 219 222 219 222 229 236 233 230 229 226 226 224 222 223 227 224 228 234 234 234 239 242 236 232 247 274 266 251 253 251 247 249 245
3 358 348 330 286 260 257 242 238 234 228 222 221 224 237 240 238 230 231 229 229 227 226 226 226 226 224 228 228 228 224 234 230 225 230 234 235 284 211 228 235 232 237
32 23 12 10 359 325 284 259 261 257 250 233 229 223 226 233 236 241 234 229 225 226 225 227 227 227 223 226 227 224 226 225 233 216 227 243 270 259 275 234 241 254 245
32 23 21 19 19 12 335 291 252 236 234 228 227 233 239 250 255 244 240 231 227 224 225 224 225 226 227 229 230 226 225 226 221 220 210 225 231 237 248 261 252 242 256
25 25 24 23 25 20 17 8 327 292 263 239 230 229 235 242 246 242 241 239 230 222 223 221 222 225 226 228 227 228 226 221 218 221 219 218 219 218 219 240 253 256 255
24 22 19 14 16 17 15 11 6 358 343 298 275 262 257 255 249 247 243 238 231 226 225 219 220 223 225 227 227 226 223 218 216 217 221 225 227 229 213 230 246 253 254
26 23 23 17 17 15 14 12 11 6 354 330 297 274 267 266 272 276 275 271 263 256 247 234 234 232 230 230 229 228 226 222 219 222 221 224 226 227 227 222 227 248 247
24 25 23 27 25 23 24 21 21 19 13 359 335 312 291 274 267 265 260 258 258 260 259 243 235 235 234 233 228 225 227 226 226 224 222 223 227 227 228 226 222 225 246
31 27 25 30 31 34 34 34 28 23 13 6 2 342 319 295 285 280 276 272 270 266 262 256 252 247 241 239 238 235 233 230 226 225 227 226 225 227 226 222 223 221 231
34 37 41 44 50 46 36 31 25 18 14 10 2 356 348 335 315 294 288 280 277 274 267 263 260 254 249 241 235 234 235 232 231 223 223 228 224 224 221 218 216 220 217
56 52 53 50 43 36 25 12 8 7 10 2 358 2 360 352 347 335 323 310 297 289 281 272 266 260 254 249 243 241 234 234 229 227 224 228 224 226 224 219 219 216 214
69 51 38 27 18 9 3 355 356 353 351 352 354 352 352 349 348 344 337 327 316 304 292 279 271 267 263 256 249 244 241 235 233 230 225 228 221 224 223 219 221 223 212
54 8 7 6 347 338 343 340 337 342 341 336 333 333 336 330 329 329 330 329 325 315 307 296 284 275 270 264 259 252 245 242 238 231 230 230 224 224 217 216 219 219 208
352 347 342 338 335 338 340 341 340 344 341 330 325 328 326 325 323 323 321 318 316 311 310 305 296 287 273 263 258 253 250 247 246 242 231 230 227 228 216 207 217 212 212
332 325 323 325 324 335 335 333 334 333 331 327 327 331 330 327 324 322 319 315 312 309 306 301 299 296 286 269 245 243 257 253 252 252 238 234 225 225 212 208 214 216 203
331 325 318 316 322 326 336 337 331 331 332 329 331 330 328 326 323 321 319 316 313 311 308 306 305 301 297 285 258 238 245 252 247 244 248 240 232 223 224 218 215 219 225
319 319 318 319 331 336 334 333 333 332 331 330 331 330 326 323 322 321 320 316 316 312 310 309 309 306 301 289 272 256 258 254 254 252 243 240 238 223 217 206 202 201 182
324 344 356 346 332 336 336 333 331 335 332 334 330 329 328 325 326 325 323 320 317 312 310 308 307 306 302 305 292 278 281 263 259 253 235 232 235 223 206 199 171 152 134
5 353 348 337 337 339 336 330 329 326 324 326 322 322 322 321 322 321 320 318 316 313 314 309 308 307 305 308 304 301 292 280 269 258 249 230 235 213 194 193 170 172 168
340 341 335 331 333 332 331 323 323 322 327 323 321 321 322 323 322 319 319 317 316 314 313 312 313 313 316 313 317 320 313 289 281 273 260 241 225 199 192 193 185 183 149
336 333 323 322 322 323 324 324 323 328 323 320 318 318 317 318 315 318 316 317 315 315 315 318 317 319 322 317 318 311 306 299 284 277 268 231 198 193 190 185 168 148 144
320 324 329 326 331 336 335 327 328 326 323 320 319 319 318 315 315 313 313 312 316 316 320 321 319 322 325 318 315 309 306 310 297 275 267 206 195 189 176 173 156 146 149
331 330 329 330 330 334 329 325 325 323 321 319 318 316 315 316 311 312 309 310 315 316 319 320 319 316 314 315 319 319 315 308 299 299 265 214 174 155 147 144 146 148 145
329 330 326 323 322 323 320 322 322 322 319 316 313 313 311 311 308 307 307 309 307 310 309 308 312 311 308 307 311 309 306 298 288 254 178 146 135 135 149 141 150 148 142
326 322 320 319 319 317 314 316 316 315 313 309 308 308 307 307 305 307 309 302 293 297 299 294 290 301 300 305 314 311 310 299 264 181 186 172 165 163 163 161 154 163 144